sat.trackr.live / text

‹ back to catalog

STARLINK-36879

NORAD 67982 · 2026-038X

PAYLOAD ACTIVE UNKNOWN

§ Identity

Operator
Country
US
Launch date
2026-02-25
Launch site
AFWTR
Launch vehicle
Mass (kg)
RCS (m²)

Purposes: comms

External: N2YO · Heavens-Above · Gunter

§ Orbital elements

Epoch: 2026-05-25T00:50:01.376160Z

Period
93.91 min
Inclination
97.2840°
Eccentricity
0.0001455
Mean motion
15.33457176 rev/d
Perigee alt
464.5 km
Apogee alt
466.5 km
Semi-major
6,843.6 km
B*
5.0540e-4
RAAN
155.1303°
Arg perigee
108.1284°
Mean anomaly
252.0117°
Rev number
1,494

§ Raw data

STARLINK-368791 67982U 26038X   26145.03473815  .00016283  00000+0  50540-3 0  99962 67982  97.2840 155.1303 0001455 108.1284 252.0117 15.33457176 14949

JSON: /api/v1/satellites/67982 · /tle

For live sub-satellite position, see the globe view (requires WebGL).

§ Visibility from observer

Set your observer location to see the next 7 days of passes ≥ 10°. The values pass through the URL so the page stays shareable.

No JS? Fill the form by hand. The geolocation button needs JavaScript.